Tracking 31028 objects as of 17-Jul-2025
HD Live streaming from Space Station
objects crossing your sky now

STARLINK-30137

Track STARLINK-30137 now!
10-day predictions
STARLINK-30137 is classified as:


NORAD ID: 56843
Int'l Code: 2023-079W
Perigee: 565.3 km
Apogee: 567.2 km
Inclination: 43.0 °
Period: 95.8 minutes
Semi major axis: 6937 km
RCS: Unknown
Launch date: June 4, 2023
Source: United States (US)
Launch site: AIR FORCE EASTERN TEST RANGE (AFETR)
Your satellite tracking list
Your tracking list is empty




NASA's NSSDC Master Catalog

Two Line Element Set (TLE):
1 56843U 23079W   25198.35408884  .00000159  00000-0  26836-4 0  9996
2 56843  43.0036 306.0377 0001366 270.6197  89.4489 15.02532467117150
Source of the keplerian elements: AFSPC